Flag for Comoros Weather past 2 weeks in Mutsamudu, Comoros

Now
82 °F

Scattered clouds.


Feels Like: 86 °F
Forecast: 71 / 76 °F
Wind: 7 mph from Southeast

Location: Dzaoudzi / Pamanzi Mayotte

Current Time: Sep 15, 2014 at 1:35:28 PM

Latest Report: Sep 15, 2014 at 1:00 PM


Visibility: N/A

Pressure: 30.04 "Hg

Humidity: 66%

Dew point: 70 °F

Location of MutsamuduLocation

Historic Weather in Mutsamudu — Graph

°F

Mutsamudu temperature yesterday

Maximum temperature yesterday: 84 °F (at 9:00 AM)
Minimum temperature yesterday: 73 °F (at 12:00 AM)
Average temperature yesterday: 79 °F

Past Weeks' High & Low Weather Summary

 TemperatureHumidityPressure
High86 °F (Sep 7, 11:30 AM)94% (Sep 5, 1:00 AM)30.12 "Hg (Sep 5, 1:00 AM)
Low70 °F (Sep 5, 12:30 AM)55% (Sep 2, 10:00 AM)29.89 "Hg (Sep 2, 2:00 PM)
Average78 °F73%30.03 "Hg
* Reported Aug 31 12:06 PM — Sep 15 12:30 PM, Mutsamudu, Weather by CustomWeather, © 2014

Note: Actual official high and low records may vary slightly from our data, if they occured in-between our weather recording intervals... More about our weather records

Advertising

Mutsamudu weather history for previous 24 hours

 ConditionsComfort  
Time TempWeatherWind HumidityBarometerVisibility
12:30 PM
Sep 15
84 °FScattered clouds.7 mph62%30.04 "HgN/A
12:00 PM84 °FScattered clouds.6 mph62%30.04 "HgN/A
11:30 AM82 °FScattered clouds.6 mph66%30.07 "HgN/A
11:13 AM82 °FScattered clouds.6 mph66%30.07 "HgN/A
10:37 AM82 °FScattered clouds.6 mph66%30.07 "HgN/A
10:00 AM82 °FScattered clouds.5 mph66%30.09 "HgN/A
9:30 AM84 °FScattered clouds.5 mph62%30.09 "HgN/A
9:00 AM82 °FScattered clouds.2 mph66%30.09 "HgN/A
8:30 AM81 °FScattered clouds.5 mph70%30.09 "HgN/A
8:00 AM81 °FPartly sunny.3 mph70%30.07 "HgN/A
7:30 AM77 °FPassing clouds.3 mph83%30.07 "HgN/A
7:00 AM75 °FPassing clouds.3 mph89%30.07 "HgN/A
6:30 AM73 °FPassing clouds.5 mph89%30.07 "HgN/A
6:00 AM72 °FPassing clouds.3 mph88%30.04 "HgN/A
5:30 AM73 °FPassing clouds.5 mph83%30.04 "HgN/A
5:00 AM73 °FPassing clouds.5 mph89%30.04 "HgN/A
4:30 AM73 °FMild.3 mph83%30.04 "HgN/A
4:00 AM73 °FMild.3 mph89%30.01 "HgN/A
3:30 AM73 °FMild.3 mph83%30.01 "HgN/A
3:00 AM75 °FMild.2 mph83%30.01 "HgN/A
2:30 AM75 °FMild.7 mph83%30.01 "HgN/A
2:00 AM75 °FPassing clouds.7 mph83%30.01 "HgN/A
1:30 AM73 °FPassing clouds.2 mph94%30.04 "HgN/A
1:00 AM73 °FMild.2 mph89%30.04 "HgN/A
12:30 AM73 °FPassing clouds.2 mph89%30.04 "HgN/A
12:00 AM73 °FMild.1 mph89%30.04 "HgN/A
11:30 PM
Sep 14
73 °FMild.3 mph89%30.04 "HgN/A
11:00 PM75 °FMild.3 mph83%30.04 "HgN/A
10:30 PM75 °FMild.3 mph83%30.07 "HgN/A
10:00 PM75 °FMild.3 mph83%30.07 "HgN/A
9:30 PM75 °FMild.5 mph83%30.07 "HgN/A
9:00 PM77 °FPassing clouds.3 mph79%30.04 "HgN/A
8:30 PM77 °FWarm.5 mph83%30.04 "HgN/A
8:00 PM77 °FWarm.6 mph83%30.04 "HgN/A
7:30 PM77 °FPassing clouds.6 mph79%30.04 "HgN/A
7:00 PM77 °FPassing clouds.7 mph79%30.04 "HgN/A
6:30 PM77 °FPassing clouds.7 mph79%30.01 "HgN/A
6:00 PM79 °FPassing clouds.7 mph74%30.01 "HgN/A
5:30 PM79 °FScattered clouds.9 mph74%30.01 "HgN/A
5:00 PM79 °FScattered clouds.10 mph74%30.01 "HgN/A
4:30 PM81 °FScattered clouds.10 mph70%30.01 "HgN/A
4:00 PM81 °FScattered clouds.12 mph70%30.01 "HgN/A
3:30 PM82 °FScattered clouds.13 mph66%29.98 "HgN/A
3:00 PM81 °FScattered clouds.12 mph70%29.98 "HgN/A
2:30 PM82 °FScattered clouds.12 mph66%29.98 "HgN/A
2:00 PM82 °FScattered clouds.12 mph66%30.01 "HgN/A
1:30 PM82 °FScattered clouds.13 mph70%30.01 "HgN/A
1:00 PM82 °FScattered clouds.13 mph70%30.01 "HgN/A
Weather by CustomWeather, © 2014

See weather overviewHow to use our weather pages